SKYSAT-1

Last updated on Wed May 26 2021 10:25:26 GMT+0000 (Coordinated Universal Time)

1 39418U 13066C 21146.10837790 .00000476 00000-0 43653-4 0 9992 2 39418 97.5939 223.5590 0023313 121.2432 239.1079 14.99172753410613

Satellite not in orbit

SKYSAT-1